TimeMDT,TemperatureF,Dew PointF,Humidity,Sea Level PressureIn,VisibilityMPH,Wind Direction,Wind SpeedMPH,Gust SpeedMPH,PrecipitationIn,Events,Conditions,WindDirDegrees,DateUTC
12:53 AM,62.1,54.0,75,29.86,10.0,East,8.1,-,N/A,,Overcast,100,2013-07-28 06:53:00
1:53 AM,62.1,53.1,72,29.84,10.0,ESE,9.2,-,N/A,,Overcast,120,2013-07-28 07:53:00
2:53 AM,60.1,53.1,78,29.85,10.0,ESE,6.9,-,N/A,,Overcast,110,2013-07-28 08:53:00
3:53 AM,59.0,54.0,83,29.86,10.0,SSE,8.1,-,0.00,,Overcast,150,2013-07-28 09:53:00
4:53 AM,59.0,54.0,83,29.85,10.0,ESE,6.9,-,0.00,,Overcast,110,2013-07-28 10:53:00
5:53 AM,59.0,54.0,83,29.87,10.0,SE,4.6,-,N/A,,Overcast,130,2013-07-28 11:53:00
6:53 AM,59.0,54.0,83,29.86,10.0,ESE,3.5,-,N/A,,Overcast,110,2013-07-28 12:53:00
7:53 AM,61.0,55.0,81,29.86,10.0,SSE,6.9,-,N/A,,Overcast,160,2013-07-28 13:53:00
8:53 AM,63.0,54.0,72,29.86,10.0,SSE,8.1,-,N/A,,Overcast,160,2013-07-28 14:53:00
9:53 AM,70.0,53.1,55,29.83,10.0,SE,8.1,-,N/A,,Mostly Cloudy,140,2013-07-28 15:53:00
10:53 AM,75.0,51.1,43,29.82,10.0,SSE,6.9,-,N/A,,Mostly Cloudy,150,2013-07-28 16:53:00
11:53 AM,78.1,48.9,36,29.80,10.0,South,4.6,-,N/A,,Clear,180,2013-07-28 17:53:00
12:53 PM,78.1,48.9,36,29.78,10.0,Variable,4.6,-,N/A,,Partly Cloudy,0,2013-07-28 18:53:00
1:53 PM,82.0,48.0,30,29.76,10.0,SSE,9.2,-,N/A,Thunderstorm,Mostly Cloudy,160,2013-07-28 19:53:00
2:08 PM,82.4,48.2,30,29.94,10.0,South,11.5,18.4,N/A,,Mostly Cloudy,170,2013-07-28 20:08:00
2:53 PM,78.1,55.9,46,29.76,10.0,South,13.8,-,0.03,,Mostly Cloudy,190,2013-07-28 20:53:00
3:50 PM,80.6,51.8,37,29.91,10.0,South,15.0,-,N/A,Thunderstorm,Clear,180,2013-07-28 21:50:00
3:53 PM,81.0,52.0,36,29.73,10.0,South,10.4,21.9,N/A,Thunderstorm,Clear,180,2013-07-28 21:53:00
4:53 PM,69.1,55.9,63,29.77,10.0,East,12.7,28.8,0.00,Rain-Thunderstorm,Light Thunderstorms and Rain,80,2013-07-28 22:53:00
5:17 PM,73.4,55.4,53,29.91,10.0,ENE,15.0,23.0,0.00,,Partly Cloudy,70,2013-07-28 23:17:00
5:53 PM,75.9,57.0,52,29.73,10.0,East,15.0,-,0.01,,Clear,80,2013-07-28 23:53:00
6:53 PM,75.0,55.0,50,29.74,10.0,SE,18.4,-,N/A,,Partly Cloudy,130,2013-07-29 00:53:00
7:53 PM,70.0,55.0,59,29.76,10.0,ESE,18.4,26.5,N/A,,Clear,120,2013-07-29 01:53:00
8:53 PM,70.0,57.0,63,29.75,10.0,SSE,18.4,-,N/A,Thunderstorm,Clear,150,2013-07-29 02:53:00
9:18 PM,69.8,57.2,64,29.99,-9999.0,WNW,27.6,35.7,N/A,Thunderstorm,Thunderstorm,290,2013-07-29 03:18:00
9:26 PM,66.2,57.2,73,29.96,1.8,ESE,15.0,35.7,N/A,Rain-Thunderstorm,Heavy Thunderstorms and Rain,120,2013-07-29 03:26:00
9:31 PM,64.4,59.0,83,29.96,3.0,South,10.4,-,N/A,Rain-Thunderstorm,Thunderstorms and Rain,180,2013-07-29 03:31:00
9:53 PM,64.9,59.0,81,29.80,10.0,SE,8.1,-,N/A,Thunderstorm,Scattered Clouds,140,2013-07-29 03:53:00
10:07 PM,64.4,59.0,83,29.97,10.0,ESE,9.2,-,N/A,,Clear,120,2013-07-29 04:07:00
10:31 PM,60.8,55.4,82,30.01,10.0,NNE,13.8,21.9,N/A,,Partly Cloudy,30,2013-07-29 04:31:00
10:53 PM,60.1,52.0,75,29.84,10.0,NE,18.4,24.2,0.01,,Scattered Clouds,40,2013-07-29 04:53:00
11:53 PM,59.0,54.0,83,29.85,10.0,East,10.4,-,N/A,,Mostly Cloudy,80,2013-07-29 05:53:00